Location: Guferjoch
(46.7462°N, 8.4506°E)
Time: 12:09:40
(UTC+00:00)

Cosmos 405 Rocket - Pass Details

Date: 14 July 2020
Orbit: 489 x 555 km, 81.3° (Epoch: 06 August)

Event Time Altitude Azimuth Distance (km) Brightness Sun altitude
Exits shadow 00:52:58 55° 178° (S) 621 2.7 -19.2°
Maximum altitude 00:53:44 82° 101° (E) 521 2.6 -19.2°
Drops below altitude 10° 00:57:31 10° 13° (NNE) 1,723 6.6 -19.0°
Sets 00:59:37 0° 12° (NNE) 2,603 7.9 -18.8°
